• în Republica Moldova
  • Lista ţărilor
  • Pe 7 zile
  • Temperatura apei
  • Hartă satelitară
  • Meteo pe hartă
  • Widget-uri
  • user-avatar
    Intrare

    Meteo pe oră la Townsville

    Astăzi, 22 Septembrie, Vineri

    Timp Temperatura Precipitaţii Vânt Presiune Umiditate
    00:00 +22°C° 0 mm 3 m/s 755 mmHg 92%
    01:00 +21°C° 0 mm 3 m/s 755 mmHg 93%
    02:00 +21°C° 0 mm 3 m/s 755 mmHg 94%
    03:00 +21°C° 0 mm 2 m/s 755 mmHg 95%
    04:00 +21°C° 0 mm 2 m/s 755 mmHg 96%
    05:00 +23°C° 0 mm 2 m/s 755 mmHg 94%
    06:00 +23°C° 0 mm 2 m/s 755 mmHg 91%
    07:00 +24°C° 0 mm 2 m/s 756 mmHg 89%
    08:00 +26°C° 0 mm 2 m/s 756 mmHg 77%
    09:00 +28°C° 0 mm 2 m/s 756 mmHg 66%
    10:00 +30°C° 0 mm 2 m/s 756 mmHg 54%
    11:00 +31°C° 0 mm 2 m/s 756 mmHg 50%
    12:00 +33°C° 0 mm 3 m/s 755 mmHg 46%
    13:00 +34°C° 0 mm 3 m/s 755 mmHg 42%
    14:00 +33°C° 0 mm 3 m/s 754 mmHg 45%
    15:00 +31°C° 0 mm 3 m/s 754 mmHg 49%
    16:00 +31°C° 0 mm 3 m/s 753 mmHg 52%
    17:00 +28°C° 0 mm 3 m/s 754 mmHg 64%
    18:00 +26°C° 0 mm 3 m/s 754 mmHg 76%
    19:00 +24°C° 0 mm 3 m/s 754 mmHg 87%
    20:00 +24°C° 0 mm 3 m/s 755 mmHg 88%
    21:00 +24°C° 0 mm 3 m/s 755 mmHg 90%
    22:00 +24°C° 0 mm 3 m/s 756 mmHg 91%
    23:00 +24°C° 0 mm 3 m/s 756 mmHg 91%

    Mâine, 23 Septembrie, Sâmbătă

    Timp Temperatura Precipitaţii Vânt Presiune Umiditate
    00:00 +22°C° 0 mm 3 m/s 755 mmHg 92%
    01:00 +22°C° 0 mm 3 m/s 755 mmHg 93%
    02:00 +22°C° 0 mm 3 m/s 755 mmHg 93%
    03:00 +22°C° 0 mm 3 m/s 755 mmHg 92%
    04:00 +23°C° 0 mm 2 m/s 755 mmHg 92%
    05:00 +23°C° 0 mm 2 m/s 755 mmHg 90%
    06:00 +24°C° 0 mm 2 m/s 756 mmHg 88%
    07:00 +24°C° 0 mm 2 m/s 756 mmHg 87%
    08:00 +26°C° 0 mm 2 m/s 756 mmHg 75%
    09:00 +28°C° 0 mm 3 m/s 756 mmHg 64%
    10:00 +30°C° 0 mm 3 m/s 756 mmHg 52%
    11:00 +31°C° 0 mm 3 m/s 756 mmHg 48%
    12:00 +33°C° 0 mm 3 m/s 755 mmHg 44%
    13:00 +33°C° 0 mm 4 m/s 755 mmHg 40%
    14:00 +33°C° 0 mm 4 m/s 754 mmHg 43%
    15:00 +31°C° 0 mm 3 m/s 754 mmHg 46%
    16:00 +30°C° 0 mm 3 m/s 753 mmHg 49%
    17:00 +28°C° 0 mm 3 m/s 754 mmHg 60%
    18:00 +26°C° 0 mm 2 m/s 754 mmHg 72%
    19:00 +24°C° 0 mm 2 m/s 755 mmHg 84%
    20:00 +23°C° 0 mm 2 m/s 755 mmHg 87%
    21:00 +23°C° 0 mm 2 m/s 756 mmHg 90%
    22:00 +21°C° 0 mm 2 m/s 756 mmHg 93%
    23:00 +21°C° 0 mm 2 m/s 756 mmHg 93%

    Poimâine, 24 Septembrie, Duminică

    Timp Temperatura Precipitaţii Vânt Presiune Umiditate
    00:00 +21°C° 0 mm 2 m/s 755 mmHg 94%
    01:00 +21°C° 0 mm 2 m/s 755 mmHg 95%
    02:00 +21°C° 0 mm 2 m/s 755 mmHg 95%
    03:00 +21°C° 0 mm 2 m/s 755 mmHg 94%
    04:00 +21°C° 0 mm 2 m/s 755 mmHg 94%
    05:00 +21°C° 0 mm 2 m/s 755 mmHg 92%
    06:00 +22°C° 0 mm 3 m/s 756 mmHg 90%
    07:00 +22°C° 0 mm 3 m/s 756 mmHg 88%
    08:00 +25°C° 0 mm 3 m/s 756 mmHg 75%
    09:00 +27°C° 0 mm 3 m/s 756 mmHg 62%
    10:00 +29°C° 0 mm 4 m/s 756 mmHg 49%
    11:00 +30°C° 0 mm 4 m/s 756 mmHg 44%
    12:00 +32°C° 0 mm 4 m/s 755 mmHg 39%
    13:00 +33°C° 0 mm 4 m/s 754 mmHg 34%
    14:00 +32°C° 0 mm 4 m/s 754 mmHg 36%
    15:00 +30°C° 0 mm 3 m/s 754 mmHg 38%
    16:00 +30°C° 0 mm 3 m/s 753 mmHg 40%
    17:00 +27°C° 0 mm 3 m/s 754 mmHg 52%
    18:00 +25°C° 0 mm 2 m/s 754 mmHg 63%
    19:00 +23°C° 0 mm 2 m/s 755 mmHg 75%
    20:00 +22°C° 0 mm 1 m/s 755 mmHg 80%
    21:00 +22°C° 0 mm 1 m/s 755 mmHg 84%
    22:00 +21°C° 0 mm 1 m/s 756 mmHg 88%
    23:00 +21°C° 0 mm 1 m/s 755 mmHg 89%

    25 Septembrie, Luni

    Timp Temperatura Precipitaţii Vânt Presiune Umiditate
    00:00 +21°C° 0 mm 1 m/s 755 mmHg 90%
    01:00 +20°C° 0 mm 1 m/s 755 mmHg 92%
    02:00 +20°C° 0 mm 1 m/s 755 mmHg 92%
    03:00 +19°C° 0 mm 2 m/s 755 mmHg 93%
    04:00 +19°C° 0 mm 2 m/s 754 mmHg 93%
    05:00 +19°C° 0 mm 2 m/s 755 mmHg 91%
    06:00 +20°C° 0 mm 2 m/s 755 mmHg 88%
    07:00 +21°C° 0 mm 2 m/s 756 mmHg 85%
    08:00 +24°C° 0 mm 3 m/s 756 mmHg 73%
    09:00 +27°C° 0 mm 3 m/s 756 mmHg 61%
    10:00 +29°C° 0 mm 4 m/s 756 mmHg 49%
    11:00 +30°C° 0 mm 4 m/s 756 mmHg 46%
    12:00 +32°C° 0 mm 4 m/s 755 mmHg 42%
    13:00 +32°C° 0 mm 4 m/s 754 mmHg 39%
    14:00 +32°C° 0 mm 4 m/s 754 mmHg 42%
    15:00 +30°C° 0 mm 4 m/s 753 mmHg 45%
    16:00 +29°C° 0 mm 3 m/s 753 mmHg 47%
    17:00 +27°C° 0 mm 3 m/s 753 mmHg 59%
    18:00 +25°C° 0 mm 2 m/s 754 mmHg 70%
    19:00 +23°C° 0 mm 2 m/s 754 mmHg 82%
    20:00 +21°C° 0 mm 2 m/s 755 mmHg 85%
    21:00 +21°C° 0 mm 2 m/s 755 mmHg 89%
    22:00 +20°C° 0 mm 2 m/s 756 mmHg 92%
    23:00 +20°C° 0 mm 2 m/s 755 mmHg 93%

    26 Septembrie, Marţi

    Timp Temperatura Precipitaţii Vânt Presiune Umiditate
    00:00 +20°C° 0 mm 2 m/s 755 mmHg 94%
    01:00 +20°C° 0 mm 2 m/s 755 mmHg 95%
    02:00 +20°C° 0 mm 2 m/s 754 mmHg 94%
    03:00 +20°C° 0 mm 2 m/s 754 mmHg 93%
    04:00 +20°C° 0 mm 2 m/s 754 mmHg 92%
    05:00 +20°C° 0 mm 2 m/s 755 mmHg 88%
    06:00 +21°C° 0 mm 2 m/s 755 mmHg 85%
    07:00 +21°C° 0 mm 2 m/s 756 mmHg 81%
    08:00 +25°C° 0 mm 3 m/s 756 mmHg 71%
    09:00 +27°C° 0 mm 3 m/s 756 mmHg 60%
    10:00 +29°C° 0 mm 3 m/s 756 mmHg 49%
    11:00 +30°C° 0 mm 3 m/s 755 mmHg 46%
    12:00 +31°C° 0 mm 3 m/s 755 mmHg 43%
    13:00 +33°C° 0 mm 3 m/s 754 mmHg 40%
    14:00 +31°C° 0 mm 3 m/s 754 mmHg 43%
    15:00 +30°C° 0 mm 3 m/s 753 mmHg 45%
    16:00 +29°C° 0 mm 3 m/s 753 mmHg 48%
    17:00 +27°C° 0 mm 3 m/s 753 mmHg 58%
    18:00 +25°C° 0 mm 3 m/s 754 mmHg 68%
    19:00 +23°C° 0 mm 2 m/s 754 mmHg 78%
    20:00 +21°C° 0 mm 2 m/s 755 mmHg 82%
    21:00 +21°C° 0 mm 2 m/s 755 mmHg 85%
    22:00 +20°C° 0 mm 2 m/s 755 mmHg 89%
    23:00 +20°C° 0 mm 2 m/s 755 mmHg 91%

    27 Septembrie, Miercuri

    Timp Temperatura Precipitaţii Vânt Presiune Umiditate
    00:00 +20°C° 0 mm 2 m/s 755 mmHg 92%
    01:00 +20°C° 0 mm 2 m/s 755 mmHg 94%
    02:00 +20°C° 0 mm 2 m/s 755 mmHg 93%
    03:00 +20°C° 0 mm 2 m/s 755 mmHg 93%
    04:00 +20°C° 0 mm 2 m/s 755 mmHg 93%
    05:00 +20°C° 0 mm 2 m/s 755 mmHg 90%
    06:00 +21°C° 0 mm 2 m/s 755 mmHg 87%
    07:00 +21°C° 0 mm 2 m/s 756 mmHg 84%
    08:00 +25°C° 0 mm 2 m/s 756 mmHg 71%
    09:00 +27°C° 0 mm 2 m/s 756 mmHg 59%
    10:00 +30°C° 0 mm 3 m/s 756 mmHg 47%
    11:00 +30°C° 0 mm 3 m/s 755 mmHg 44%
    12:00 +31°C° 0 mm 3 m/s 755 mmHg 41%
    13:00 +33°C° 0 mm 3 m/s 754 mmHg 38%
    14:00 +33°C° 0 mm 3 m/s 754 mmHg 41%
    15:00 +31°C° 0 mm 3 m/s 753 mmHg 43%
    16:00 +30°C° 0 mm 3 m/s 753 mmHg 46%
    17:00 +28°C° 0 mm 3 m/s 753 mmHg 56%
    18:00 +25°C° 0 mm 2 m/s 754 mmHg 67%
    19:00 +23°C° 0 mm 2 m/s 754 mmHg 77%
    20:00 +23°C° 0 mm 2 m/s 755 mmHg 81%
    21:00 +22°C° 0 mm 1 m/s 755 mmHg 84%
    22:00 +21°C° 0 mm 1 m/s 755 mmHg 88%
    23:00 +21°C° 0 mm 1 m/s 755 mmHg 89%
    Arată mai mult